Time,TemperatureF,DewpointF,PressureIn,WindDirection,WindDirectionDegrees,WindSpeedMPH,WindSpeedGustMPH,Humidity,HourlyPrecipIn,Conditions,Clouds,dailyrainin,SoftwareType,DateUTC
2013-04-09 00:02:00,44.0,29.0,29.76,NW,325,22.0,34.0,55,0.00,,,0.00,,2013-04-09 07:02:00,
2013-04-09 00:12:00,44.0,29.0,29.76,NW,325,22.0,34.0,55,0.00,,,0.00,,2013-04-09 07:12:00,
2013-04-09 00:22:00,44.0,28.0,29.77,NW,319,18.0,31.0,52,0.00,,,0.00,,2013-04-09 07:22:00,
2013-04-09 00:32:00,43.0,26.0,29.78,NNW,342,14.0,26.0,51,0.00,,,0.00,,2013-04-09 07:32:00,
2013-04-09 00:42:00,43.0,26.0,29.78,NNW,342,14.0,26.0,51,0.00,,,0.00,,2013-04-09 07:42:00,
2013-04-09 00:52:00,43.0,26.0,29.78,NW,313,8.0,24.0,50,0.00,,,0.00,,2013-04-09 07:52:00,
2013-04-09 01:02:00,43.0,25.0,29.78,WNW,302,15.0,23.0,48,0.00,,,0.00,,2013-04-09 08:02:00,
2013-04-09 01:11:00,43.0,25.0,29.78,WNW,302,15.0,23.0,48,0.00,,,0.00,,2013-04-09 08:11:00,
2013-04-09 01:21:00,43.0,24.0,29.79,NW,310,19.0,27.0,47,0.00,,,0.00,,2013-04-09 08:21:00,
2013-04-09 01:32:00,43.0,25.0,29.79,NW,318,15.0,25.0,48,0.00,,,0.00,,2013-04-09 08:32:00,
2013-04-09 01:42:00,43.0,25.0,29.79,NW,318,15.0,25.0,48,0.00,,,0.00,,2013-04-09 08:42:00,
2013-04-09 01:52:00,42.0,24.0,29.79,NW,313,12.0,25.0,49,0.00,,,0.00,,2013-04-09 08:52:00,
2013-04-09 02:01:00,42.0,24.0,29.80,NNW,329,12.0,19.0,49,0.00,,,0.00,,2013-04-09 09:01:00,
2013-04-09 02:12:00,42.0,25.0,29.79,NNW,346,12.0,17.0,51,0.00,,,0.00,,2013-04-09 09:12:00,
2013-04-09 02:22:00,42.0,25.0,29.79,NNW,346,12.0,17.0,51,0.00,,,0.00,,2013-04-09 09:22:00,
2013-04-09 02:32:00,42.0,25.0,29.78,NW,311,20.0,29.0,50,0.00,,,0.00,,2013-04-09 09:32:00,
2013-04-09 02:43:00,42.0,25.0,29.78,NW,311,20.0,29.0,50,0.00,,,0.00,,2013-04-09 09:43:00,
2013-04-09 02:52:00,42.0,25.0,29.78,NW,318,19.0,29.0,50,0.00,,,0.00,,2013-04-09 09:52:00,
2013-04-09 03:02:00,42.0,25.0,29.78,WNW,287,16.0,23.0,50,0.00,,,0.00,,2013-04-09 10:02:00,
2013-04-09 03:12:00,42.0,25.0,29.78,WNW,287,16.0,23.0,50,0.00,,,0.00,,2013-04-09 10:12:00,
2013-04-09 03:23:00,42.0,25.0,29.78,NW,307,16.0,23.0,50,0.00,,,0.00,,2013-04-09 10:23:00,
2013-04-09 03:32:00,42.0,25.0,29.78,NW,308,16.0,23.0,50,0.00,,,0.00,,2013-04-09 10:32:00,
2013-04-09 03:42:00,42.0,25.0,29.78,NW,308,16.0,23.0,50,0.00,,,0.00,,2013-04-09 10:42:00,
2013-04-09 03:52:00,42.0,25.0,29.78,WNW,299,20.0,26.0,50,0.00,,,0.00,,2013-04-09 10:52:00,
2013-04-09 04:02:00,41.0,24.0,29.78,NW,312,14.0,22.0,51,0.00,,,0.00,,2013-04-09 11:02:00,
2013-04-09 04:12:00,41.0,24.0,29.78,NW,312,14.0,22.0,51,0.00,,,0.00,,2013-04-09 11:12:00,
2013-04-09 04:22:00,41.0,24.0,29.78,WNW,303,10.0,23.0,51,0.00,,,0.00,,2013-04-09 11:22:00,
2013-04-09 04:32:00,41.0,25.0,29.80,NNW,331,2.0,11.0,52,0.00,,,0.00,,2013-04-09 11:32:00,
2013-04-09 04:42:00,41.0,25.0,29.80,NNW,331,2.0,11.0,52,0.00,,,0.00,,2013-04-09 11:42:00,
2013-04-09 04:52:00,41.0,24.0,29.80,WNW,303,7.0,12.0,51,0.00,,,0.00,,2013-04-09 11:52:00,
2013-04-09 05:01:00,41.0,24.0,29.81,NW,320,9.0,15.0,51,0.00,,,0.00,,2013-04-09 12:01:00,
2013-04-09 05:12:00,41.0,24.0,29.81,NW,320,9.0,15.0,51,0.00,,,0.00,,2013-04-09 12:12:00,
2013-04-09 05:22:00,40.0,23.0,29.81,North,360,4.0,12.0,51,0.00,,,0.00,,2013-04-09 12:22:00,
2013-04-09 05:32:00,41.0,24.0,29.81,West,267,9.0,17.0,51,0.00,,,0.00,,2013-04-09 12:32:00,
2013-04-09 05:42:00,41.0,24.0,29.81,West,267,9.0,17.0,51,0.00,,,0.00,,2013-04-09 12:42:00,
2013-04-09 05:53:00,41.0,24.0,29.82,WNW,296,18.0,25.0,50,0.00,,,0.00,,2013-04-09 12:53:00,
2013-04-09 06:02:00,41.0,24.0,29.83,WNW,294,10.0,18.0,51,0.00,,,0.00,,2013-04-09 13:02:00,
2013-04-09 06:12:00,41.0,24.0,29.83,WNW,294,10.0,18.0,51,0.00,,,0.00,,2013-04-09 13:12:00,
2013-04-09 06:22:00,40.0,24.0,29.84,NW,317,11.0,16.0,52,0.00,,,0.00,,2013-04-09 13:22:00,
2013-04-09 06:32:00,40.0,24.0,29.84,WNW,290,7.0,15.0,52,0.00,,,0.00,,2013-04-09 13:32:00,
2013-04-09 06:42:00,40.0,24.0,29.84,WNW,290,7.0,15.0,52,0.00,,,0.00,,2013-04-09 13:42:00,
2013-04-09 07:02:00,40.0,23.0,29.85,WNW,284,15.0,23.0,51,0.00,,,0.00,,2013-04-09 14:02:00,
2013-04-09 07:11:00,40.0,23.0,29.85,WNW,284,15.0,23.0,51,0.00,,,0.00,,2013-04-09 14:11:00,
2013-04-09 07:21:00,41.0,24.0,29.87,NW,315,10.0,23.0,51,0.00,,,0.00,,2013-04-09 14:21:00,
2013-04-09 07:31:00,41.0,25.0,29.87,WNW,296,13.0,24.0,52,0.00,,,0.00,,2013-04-09 14:31:00,
2013-04-09 07:41:00,41.0,25.0,29.87,WNW,296,13.0,24.0,52,0.00,,,0.00,,2013-04-09 14:41:00,
2013-04-09 07:52:00,42.0,25.0,29.87,WNW,295,14.0,28.0,51,0.00,,,0.00,,2013-04-09 14:52:00,
2013-04-09 08:01:00,42.0,25.0,29.88,WNW,284,15.0,24.0,50,0.00,,,0.00,,2013-04-09 15:01:00,
2013-04-09 08:12:00,42.0,25.0,29.88,WNW,284,15.0,24.0,50,0.00,,,0.00,,2013-04-09 15:12:00,
2013-04-09 08:22:00,43.0,25.0,29.88,NNW,328,20.0,26.0,48,0.00,,,0.00,,2013-04-09 15:22:00,
2013-04-09 08:32:00,44.0,24.0,29.90,NW,315,16.0,20.0,45,0.00,,,0.00,,2013-04-09 15:32:00,
2013-04-09 08:42:00,44.0,24.0,29.90,NW,315,16.0,20.0,45,0.00,,,0.00,,2013-04-09 15:42:00,
2013-04-09 08:53:00,45.0,23.0,29.90,WNW,297,16.0,24.0,42,0.00,,,0.00,,2013-04-09 15:53:00,
2013-04-09 09:02:00,46.0,23.0,29.90,NW,317,12.0,22.0,40,0.00,,,0.00,,2013-04-09 16:02:00,
2013-04-09 09:12:00,46.0,23.0,29.90,NW,317,12.0,22.0,40,0.00,,,0.00,,2013-04-09 16:12:00,
2013-04-09 09:22:00,47.0,24.0,29.91,NW,318,11.0,23.0,40,0.00,,,0.00,,2013-04-09 16:22:00,
2013-04-09 09:32:00,48.0,24.0,29.91,WNW,282,11.0,16.0,39,0.00,,,0.00,,2013-04-09 16:32:00,
2013-04-09 09:41:00,48.0,24.0,29.91,WNW,282,11.0,16.0,39,0.00,,,0.00,,2013-04-09 16:41:00,
2013-04-09 09:53:00,48.0,23.0,29.90,NW,306,11.0,18.0,37,0.00,,,0.00,,2013-04-09 16:53:00,
2013-04-09 10:02:00,49.0,23.0,29.90,NW,313,10.0,15.0,36,0.00,,,0.00,,2013-04-09 17:02:00,
2013-04-09 10:12:00,49.0,23.0,29.90,NW,313,10.0,15.0,36,0.00,,,0.00,,2013-04-09 17:12:00,
2013-04-09 10:22:00,50.0,23.0,29.89,WNW,301,12.0,21.0,34,0.00,,,0.00,,2013-04-09 17:22:00,
2013-04-09 10:32:00,51.0,23.0,29.90,WNW,302,10.0,16.0,33,0.00,,,0.00,,2013-04-09 17:32:00,
2013-04-09 10:42:00,51.0,23.0,29.90,WNW,302,10.0,16.0,33,0.00,,,0.00,,2013-04-09 17:42:00,
2013-04-09 10:53:00,52.0,22.0,29.90,NW,325,10.0,18.0,30,0.00,,,0.00,,2013-04-09 17:53:00,
2013-04-09 11:01:00,53.0,20.0,29.92,North,351,14.0,22.0,27,0.00,,,0.00,,2013-04-09 18:01:00,
2013-04-09 11:12:00,53.0,20.0,29.92,North,351,14.0,22.0,27,0.00,,,0.00,,2013-04-09 18:12:00,
2013-04-09 11:22:00,53.0,20.0,29.93,NNW,336,9.0,19.0,27,0.00,,,0.00,,2013-04-09 18:22:00,
2013-04-09 11:32:00,54.0,22.0,29.92,NW,304,13.0,19.0,29,0.00,,,0.00,,2013-04-09 18:32:00,
2013-04-09 11:42:00,54.0,22.0,29.92,NW,304,13.0,19.0,29,0.00,,,0.00,,2013-04-09 18:42:00,
2013-04-09 11:53:00,54.0,22.0,29.91,WNW,284,10.0,20.0,28,0.00,,,0.00,,2013-04-09 18:53:00,
2013-04-09 12:02:00,54.0,22.0,29.91,WNW,284,10.0,20.0,28,0.00,,,0.00,,2013-04-09 19:02:00,
2013-04-09 12:11:00,54.0,22.0,29.91,WNW,284,10.0,20.0,28,0.00,,,0.00,,2013-04-09 19:11:00,
2013-04-09 12:22:00,54.0,22.0,29.91,WNW,284,10.0,20.0,28,0.00,,,0.00,,2013-04-09 19:22:00,
2013-04-09 12:31:00,56.0,20.0,29.91,NW,323,10.0,21.0,24,0.00,,,0.00,,2013-04-09 19:31:00,
2013-04-09 12:42:00,56.0,20.0,29.91,NW,323,10.0,21.0,24,0.00,,,0.00,,2013-04-09 19:42:00,
2013-04-09 12:52:00,57.0,20.0,29.91,North,355,6.0,22.0,23,0.00,,,0.00,,2013-04-09 19:52:00,
2013-04-09 13:02:00,59.0,17.0,29.89,NNE,22,7.0,17.0,19,0.00,,,0.00,,2013-04-09 20:02:00,
2013-04-09 13:11:00,60.0,16.0,29.89,NNE,20,12.0,20.0,18,0.00,,,0.00,,2013-04-09 20:11:00,
2013-04-09 13:22:00,60.0,16.0,29.89,NNE,20,12.0,20.0,18,0.00,,,0.00,,2013-04-09 20:22:00,
2013-04-09 13:32:00,60.0,16.0,29.90,North,9,13.0,24.0,18,0.00,,,0.00,,2013-04-09 20:32:00,
2013-04-09 13:42:00,60.0,16.0,29.90,North,9,13.0,24.0,18,0.00,,,0.00,,2013-04-09 20:42:00,
2013-04-09 13:52:00,61.0,16.0,29.89,ENE,60,10.0,16.0,17,0.00,,,0.00,,2013-04-09 20:52:00,
2013-04-09 14:01:00,62.0,17.0,29.91,North,5,11.0,19.0,17,0.00,,,0.00,,2013-04-09 21:01:00,
2013-04-09 14:12:00,62.0,17.0,29.91,North,5,11.0,19.0,17,0.00,,,0.00,,2013-04-09 21:12:00,
2013-04-09 14:22:00,62.0,17.0,29.91,North,5,11.0,19.0,17,0.00,,,0.00,,2013-04-09 21:22:00,
2013-04-09 14:32:00,60.0,18.0,29.89,NNW,327,11.0,20.0,19,0.00,,,0.00,,2013-04-09 21:32:00,
2013-04-09 14:42:00,60.0,18.0,29.89,NNW,327,11.0,20.0,19,0.00,,,0.00,,2013-04-09 21:42:00,
2013-04-09 14:53:00,61.0,18.0,29.89,NNW,348,7.0,18.0,19,0.00,,,0.00,,2013-04-09 21:53:00,
2013-04-09 15:02:00,60.0,19.0,29.89,West,268,10.0,18.0,20,0.00,,,0.00,,2013-04-09 22:02:00,
2013-04-09 15:12:00,59.0,19.0,29.89,West,277,13.0,21.0,21,0.00,,,0.00,,2013-04-09 22:12:00,
2013-04-09 15:22:00,59.0,19.0,29.89,West,277,13.0,21.0,21,0.00,,,0.00,,2013-04-09 22:22:00,
2013-04-09 15:32:00,60.0,20.0,29.89,NW,315,13.0,25.0,21,0.00,,,0.00,,2013-04-09 22:32:00,
2013-04-09 15:42:00,60.0,20.0,29.89,NW,315,13.0,25.0,21,0.00,,,0.00,,2013-04-09 22:42:00,
2013-04-09 15:53:00,59.0,18.0,29.89,WNW,285,9.0,24.0,20,0.00,,,0.00,,2013-04-09 22:53:00,
2013-04-09 16:02:00,60.0,20.0,29.88,WNW,288,14.0,21.0,21,0.00,,,0.00,,2013-04-09 23:02:00,
2013-04-09 16:12:00,59.0,20.0,29.88,WNW,291,12.0,22.0,22,0.00,,,0.00,,2013-04-09 23:12:00,
2013-04-09 16:22:00,59.0,20.0,29.88,WNW,291,12.0,22.0,22,0.00,,,0.00,,2013-04-09 23:22:00,
2013-04-09 16:32:00,59.0,20.0,29.88,NW,307,11.0,26.0,22,0.00,,,0.00,,2013-04-09 23:32:00,
2013-04-09 16:42:00,59.0,20.0,29.88,NW,307,11.0,26.0,22,0.00,,,0.00,,2013-04-09 23:42:00,
2013-04-09 16:52:00,59.0,20.0,29.88,WNW,290,14.0,23.0,22,0.00,,,0.00,,2013-04-09 23:52:00,
2013-04-09 17:02:00,59.0,20.0,29.88,WNW,290,14.0,23.0,22,0.00,,,0.00,,2013-04-10 00:02:00,
2013-04-09 17:11:00,59.0,20.0,29.88,WNW,290,14.0,23.0,22,0.00,,,0.00,,2013-04-10 00:11:00,
2013-04-09 17:22:00,58.0,18.0,29.89,West,277,17.0,28.0,21,0.00,,,0.00,,2013-04-10 00:22:00,
2013-04-09 17:32:00,58.0,16.0,29.89,NW,305,20.0,29.0,19,0.00,,,0.00,,2013-04-10 00:32:00,
2013-04-09 17:41:00,58.0,16.0,29.89,NW,305,20.0,29.0,19,0.00,,,0.00,,2013-04-10 00:41:00,
2013-04-09 17:52:00,57.0,15.0,29.91,NW,316,18.0,29.0,19,0.00,,,0.00,,2013-04-10 00:52:00,
2013-04-09 18:01:00,56.0,16.0,29.91,WNW,294,19.0,30.0,20,0.00,,,0.00,,2013-04-10 01:01:00,
2013-04-09 18:11:00,56.0,16.0,29.91,West,267,18.0,30.0,20,0.00,,,0.00,,2013-04-10 01:11:00,
2013-04-09 18:22:00,56.0,16.0,29.91,West,267,18.0,30.0,20,0.00,,,0.00,,2013-04-10 01:22:00,
2013-04-09 18:31:00,55.0,16.0,29.91,WNW,288,17.0,27.0,21,0.00,,,0.00,,2013-04-10 01:31:00,
2013-04-09 18:42:00,55.0,16.0,29.91,WNW,288,17.0,27.0,21,0.00,,,0.00,,2013-04-10 01:42:00,
2013-04-09 18:52:00,55.0,18.0,29.90,WNW,295,15.0,27.0,23,0.00,,,0.00,,2013-04-10 01:52:00,
2013-04-09 19:01:00,54.0,19.0,29.91,NW,306,18.0,26.0,25,0.00,,,0.00,,2013-04-10 02:01:00,
2013-04-09 19:11:00,54.0,19.0,29.91,NW,306,18.0,26.0,25,0.00,,,0.00,,2013-04-10 02:11:00,
2013-04-09 19:22:00,53.0,20.0,29.90,NW,312,17.0,26.0,27,0.00,,,0.00,,2013-04-10 02:22:00,
2013-04-09 19:32:00,52.0,21.0,29.91,WNW,294,14.0,22.0,29,0.00,,,0.00,,2013-04-10 02:32:00,
2013-04-09 19:42:00,52.0,21.0,29.91,WNW,294,14.0,22.0,29,0.00,,,0.00,,2013-04-10 02:42:00,
2013-04-09 19:52:00,51.0,21.0,29.91,NW,304,18.0,26.0,30,0.00,,,0.00,,2013-04-10 02:52:00,
2013-04-09 20:01:00,51.0,22.0,29.91,WNW,296,14.0,25.0,32,0.00,,,0.00,,2013-04-10 03:01:00,
2013-04-09 20:12:00,51.0,22.0,29.91,WNW,296,14.0,25.0,32,0.00,,,0.00,,2013-04-10 03:12:00,
2013-04-09 20:22:00,50.0,21.0,29.92,WNW,284,14.0,27.0,32,0.00,,,0.00,,2013-04-10 03:22:00,
2013-04-09 20:32:00,50.0,21.0,29.94,West,259,15.0,23.0,32,0.00,,,0.00,,2013-04-10 03:32:00,
2013-04-09 20:43:00,50.0,21.0,29.94,West,259,15.0,23.0,32,0.00,,,0.00,,2013-04-10 03:43:00,
2013-04-09 20:52:00,50.0,21.0,29.95,WNW,282,14.0,20.0,31,0.00,,,0.00,,2013-04-10 03:52:00,
2013-04-09 21:02:00,50.0,21.0,29.96,West,270,11.0,19.0,32,0.00,,,0.00,,2013-04-10 04:02:00,
2013-04-09 21:12:00,50.0,21.0,29.96,West,270,11.0,19.0,32,0.00,,,0.00,,2013-04-10 04:12:00,
2013-04-09 21:22:00,50.0,22.0,29.98,West,279,10.0,19.0,33,0.00,,,0.00,,2013-04-10 04:22:00,
2013-04-09 21:32:00,49.0,21.0,29.97,WNW,288,8.0,16.0,33,0.00,,,0.00,,2013-04-10 04:32:00,
2013-04-09 21:42:00,49.0,21.0,29.97,WNW,288,8.0,16.0,33,0.00,,,0.00,,2013-04-10 04:42:00,
2013-04-09 21:53:00,49.0,21.0,29.98,West,267,6.0,18.0,33,0.00,,,0.00,,2013-04-10 04:53:00,
2013-04-09 22:02:00,49.0,21.0,29.99,WNW,296,3.0,11.0,33,0.00,,,0.00,,2013-04-10 05:02:00,
2013-04-09 22:12:00,49.0,21.0,29.99,NW,317,5.0,8.0,33,0.00,,,0.00,,2013-04-10 05:12:00,
2013-04-09 22:22:00,49.0,21.0,29.99,NW,317,5.0,8.0,33,0.00,,,0.00,,2013-04-10 05:22:00,
2013-04-09 22:32:00,49.0,20.0,29.99,West,279,6.0,10.0,32,0.00,,,0.00,,2013-04-10 05:32:00,
2013-04-09 22:42:00,49.0,20.0,29.99,West,279,6.0,10.0,32,0.00,,,0.00,,2013-04-10 05:42:00,
2013-04-09 22:53:00,49.0,21.0,30.02,West,274,5.0,11.0,33,0.00,,,0.00,,2013-04-10 05:53:00,
2013-04-09 23:02:00,49.0,20.0,30.00,NW,317,1.0,11.0,31,0.00,,,0.00,,2013-04-10 06:02:00,
2013-04-09 23:12:00,49.0,19.0,30.00,South,179,2.0,7.0,30,0.00,,,0.00,,2013-04-10 06:12:00,
2013-04-09 23:22:00,49.0,19.0,30.00,South,179,2.0,7.0,30,0.00,,,0.00,,2013-04-10 06:22:00,
2013-04-09 23:32:00,49.0,20.0,30.02,SSE,166,2.0,5.0,31,0.00,,,0.00,,2013-04-10 06:32:00,
2013-04-09 23:42:00,49.0,20.0,30.02,SSE,166,2.0,5.0,31,0.00,,,0.00,,2013-04-10 06:42:00,
2013-04-09 23:52:00,49.0,16.0,30.03,North,355,2.0,7.0,27,0.00,,,0.00,,2013-04-10 06:52:00,